Regional Weather Roundup
Issued by NWS Albany, NY

Home | Current Version | Previous Version | Text Only | Print | Product List | Glossary On
Versions: 1 2 3 4 5 6 7 8 9 10 11 12 13 14 15 16 17 18 19 20 21 22 23 24 25 26 27 28 29 30 31 32 33 34 35 36 37 38 39 40 41 42 43 44 45 46 47 48 49 50
000
ASUS41 KALY 241710
RWRALY

NEW YORK STATE HOURLY WEATHER ROUNDUP
NATIONAL WEATHER SERVICE ALBANY NY
1200 PM EST WED DEC 24 2014

NOTE: "FAIR" INDICATES FEW OR NO CLOUDS BELOW 12,000 FEET WITH NO
SIGNIFICANT WEATHER AND/OR NO OBSTRUCTIONS TO VISIBILITY.

NYZ032-033-038>043-046>054-057>066-NYZ062>081-241800-
EAST


CITY           SKY/WX    TMP DP  RH WIND       PRES   REMARKS
ALBANY         LGT RAIN  44  42  93 CALM      29.85F FOG
GLENS FALLS    RAIN      38  37  97 CALM      29.86F VSB 1
POUGHKEEPSIE   LGT RAIN  46  44  93 CALM      29.85F FOG
NEWBURGH       DRIZZLE   45  45 100 E7        29.86F FOG
MONTGOMERY     LGT RAIN  46  45  96 NE7       29.84F
WHITE PLAINS   RAIN      45  44  97 E10       29.84F FOG
ISLIP          LGT RAIN  50  48  93 E8        29.86F FOG
NEW YORK CITY  LGT RAIN  44  43  96 NE12      29.86F VSB 1
CENTRAL PARK   LGT RAIN  44  43  96 NE8       29.88F FOG
$$

NYZ005>009-017-018-044>046-055-056-241800-
CENTRAL


CITY           SKY/WX    TMP DP  RH WIND       PRES   REMARKS
FULTON         LGT RAIN  46  43  89 SE10      29.67F
SYRACUSE       LGT RAIN  43  43 100 E13       29.68F
ROME           RAIN      43  43 100 SE5       29.77F FOG
ELMIRA         CLOUDY    50  48  93 E6        29.68F
BINGHAMTON     LGT RAIN  45  45 100 SE16      29.70F FOG
MONTICELLO     CLOUDY    43  41  93 E9        29.83F
$$

NYZ026>034-041>043-241800-
NORTH


CITY           SKY/WX    TMP DP  RH WIND       PRES   REMARKS
WATERTOWN      CLOUDY    55  46  71 S10G22    29.65F
FORT DRUM      NOT AVBL
MASSENA        LGT RAIN  39  37  92 NE7       29.70F VSB 1/2 WCI  34
SARANAC LAKE   LGT RAIN  45  43  93 S7        29.74F
PLATTSBURGH    RAIN      40  40 100 SE13      29.81F WCI  32
$$

NYZ001>004-010>016-019>021-241800-
WEST


CITY           SKY/WX    TMP DP  RH WIND       PRES   REMARKS
NIAGARA FALLS  CLOUDY    54  48  80 S3        29.55F
BUFFALO        CLOUDY    55  48  77 S9        29.57F
DUNKIRK        CLOUDY    56  48  74 S20G32    29.55F
JAMESTOWN      CLOUDY    48  45  87 S14G20    29.58F
WELLSVILLE     CLOUDY    47  45  93 SE7       29.64F
ROCHESTER      CLOUDY    54  47  77 S8        29.61F
PENN YAN       CLOUDY    51  47  86 S8        29.66F
$$

             KEY
       WCI = WIND CHILL INDEX
       VSB = VISIBILITY
       HX  = HEAT INDEX
$$



USA.gov is the U.S. government's official web portal to all federal, state and local government web resources and services.